2014-12-31 00:01:15 r, 17.58m,0000000008Hz,0000058635c,0000000.127s,-002.3C,00002191
2014-12-31 00:11:15 r, 17.58m,0000000008Hz,0000058968c,0000000.128s,-002.0C,00002191
2014-12-31 00:21:17 r, 17.54m,0000000008Hz,0000056621c,0000000.123s,-002.0C,00002191
2014-12-31 00:31:15 r, 17.58m,0000000007Hz,0000058688c,0000000.127s,-001.7C,00002191
2014-12-31 00:41:17 r, 17.73m,0000000007Hz,0000068067c,0000000.148s,-001.3C,00002191
2014-12-31 00:51:16 r, 17.78m,0000000007Hz,0000071083c,0000000.154s,-001.3C,00002191
2014-12-31 01:01:17 r, 17.67m,0000000007Hz,0000064165c,0000000.139s,-001.0C,00002191
2014-12-31 01:11:15 r, 17.85m,0000000007Hz,0000075904c,0000000.165s,-001.0C,00002191
2014-12-31 01:21:16 r, 17.83m,0000000007Hz,0000074344c,0000000.161s,-000.7C,00002191
2014-12-31 01:31:17 r, 17.95m,0000000006Hz,0000083341c,0000000.181s,-000.7C,00002191
2014-12-31 01:41:16 r, 18.34m,0000000004Hz,0000119108c,0000000.258s,-000.7C,00002191
2014-12-31 01:51:15 r, 18.58m,0000000003Hz,0000147753c,0000000.321s,-000.7C,00002191
2014-12-31 02:01:16 r, 18.92m,0000000002Hz,0000203618c,0000000.442s,-000.4C,00002191
2014-12-31 02:11:15 r, 19.11m,0000000002Hz,0000238293c,0000000.517s,-000.4C,00002191
2014-12-31 02:21:19 r, 19.06m,0000000002Hz,0000228268c,0000000.495s,-000.4C,00002191
2014-12-31 02:31:15 r, 19.03m,0000000002Hz,0000222794c,0000000.483s,-000.4C,00002191
2014-12-31 02:41:15 r, 18.86m,0000000003Hz,0000191108c,0000000.415s,-000.4C,00002191
2014-12-31 02:51:15 r, 18.73m,0000000003Hz,0000170222c,0000000.369s, 000.1C,00002191
2014-12-31 03:01:18 r, 18.88m,0000000003Hz,0000194894c,0000000.423s, 000.1C,00002191
2014-12-31 03:11:15 r, 18.51m,0000000004Hz,0000138248c,0000000.300s, 000.1C,00002191
2014-12-31 03:21:16 r, 18.41m,0000000003Hz,0000127090c,0000000.276s, 000.3C,00002191
2014-12-31 03:31:15 r, 18.26m,0000000005Hz,0000110348c,0000000.239s, 000.3C,00002191
2014-12-31 03:41:16 r, 18.16m,0000000005Hz,0000101183c,0000000.220s, 000.3C,00002191
2014-12-31 03:51:15 r, 18.66m,0000000003Hz,0000160021c,0000000.347s, 000.6C,00002191
2014-12-31 04:01:18 r, 19.08m,0000000002Hz,0000234872c,0000000.510s, 000.6C,00002191
2014-12-31 04:11:18 r, 18.42m,0000000003Hz,0000127618c,0000000.277s, 000.6C,00002191
2014-12-31 04:21:17 r, 18.50m,0000000003Hz,0000137417c,0000000.298s, 000.6C,00002191
2014-12-31 04:31:15 r, 18.70m,0000000003Hz,0000166227c,0000000.361s, 000.9C,00002191
2014-12-31 04:41:20 r, 18.98m,0000000002Hz,0000213125c,0000000.463s, 000.9C,00002191
2014-12-31 04:51:16 r, 19.28m,0000000002Hz,0000279415c,0000000.606s, 000.9C,00002191
2014-12-31 05:01:19 r, 19.50m,0000000001Hz,0000345583c,0000000.750s, 001.2C,00002191
2014-12-31 05:11:15 r, 19.52m,0000000001Hz,0000352153c,0000000.764s, 001.2C,00002191
2014-12-31 05:21:16 r, 19.33m,0000000002Hz,0000294729c,0000000.640s, 001.2C,00002191
2014-12-31 05:31:15 r, 19.11m,0000000002Hz,0000240297c,0000000.521s, 001.6C,00002191
2014-12-31 05:41:16 r, 19.15m,0000000002Hz,0000249963c,0000000.542s, 001.6C,00002191
2014-12-31 05:51:16 r, 19.18m,0000000002Hz,0000258634c,0000000.561s, 002.2C,00002191
2014-12-31 06:01:17 r, 19.28m,0000000002Hz,0000283378c,0000000.615s, 002.2C,00002191
2014-12-31 06:11:15 r, 19.46m,0000000001Hz,0000330480c,0000000.717s, 002.5C,00002191
2014-12-31 06:21:17 r, 19.86m,0000000001Hz,0000478133c,0000001.038s, 002.5C,00002191
2014-12-31 06:31:21 r, 20.04m,0000000001Hz,0000565648c,0000001.228s, 002.2C,00002191
2014-12-31 06:41:15 r, 20.11m,0000000001Hz,0000603774c,0000001.310s, 002.2C,00002191
2014-12-31 06:51:19 r, 20.15m,0000000000Hz,0000629766c,0000001.367s, 001.9C,00002191
2014-12-31 07:01:15 r, 19.88m,0000000001Hz,0000485777c,0000001.054s, 001.6C,00002191
2014-12-31 07:11:17 r, 19.00m,0000000002Hz,0000218977c,0000000.475s, 001.2C,00002191
2014-12-31 07:21:16 r, 17.74m,0000000007Hz,0000068865c,0000000.149s, 000.6C,00002191
2014-12-31 07:31:16 r, 16.24m,0000000027Hz,0000017162c,0000000.037s, 000.3C,00002191
2014-12-31 07:41:16 r, 14.45m,0000000140Hz,0000000000c,0000000.000s, 000.1C,00002191
2014-12-31 07:51:16 r, 12.59m,0000000777Hz,0000000000c,0000000.000s,-000.4C,00002191
2014-12-31 08:01:15 r, 10.72m,0000004369Hz,0000000000c,0000000.000s,-000.7C,00002191
2014-12-31 08:11:16 r, 09.10m,0000019333Hz,0000000000c,0000000.000s,-001.0C,00002191
2014-12-31 08:21:15 r, 07.92m,0000057589Hz,0000000000c,0000000.000s,-001.0C,00002191
2014-12-31 08:31:17 r, 07.07m,0000125559Hz,0000000000c,0000000.000s,-000.7C,00002191
2014-12-31 08:41:15 r, 06.49m,0000213859Hz,0000000000c,0000000.000s,-000.7C,00002191
2014-12-31 08:51:15 r, 06.08m,0000311912Hz,0000000000c,0000000.000s,-000.7C,00002191
2014-12-31 09:01:15 r, 00.00m,0000409891Hz,0000000000c,0000000.000s, 000.1C,00002191
2014-12-31 09:11:18 r, 00.00m,0000508328Hz,0000000000c,0000000.000s, 000.9C,00002191
2014-12-31 09:21:18 r, 00.00m,0000602594Hz,0000000000c,0000000.000s, 002.2C,00002191
2014-12-31 09:31:16 r, 00.00m,0000596957Hz,0000000000c,0000000.000s, 003.2C,00002191
2014-12-31 09:41:15 r, 00.00m,0000596910Hz,0000000000c,0000000.000s, 004.1C,00002191
2014-12-31 09:51:16 r, 00.00m,0000596891Hz,0000000000c,0000000.000s, 004.8C,00002191
2014-12-31 10:01:15 r, 00.00m,0000596853Hz,0000000000c,0000000.000s, 005.1C,00002191
2014-12-31 10:11:15 r, 00.00m,0000596868Hz,0000000000c,0000000.000s, 006.1C,00002191
2014-12-31 10:21:16 r, 00.00m,0000596699Hz,0000000000c,0000000.000s, 006.7C,00002191
2014-12-31 10:31:18 r, 00.00m,0000596655Hz,0000000000c,0000000.000s, 007.7C,00002191
2014-12-31 10:41:14 r, 00.00m,0000596721Hz,0000000000c,0000000.000s, 007.0C,00002191
2014-12-31 10:51:17 r, 00.00m,0000596674Hz,0000000000c,0000000.000s, 006.4C,00002191
2014-12-31 11:01:15 r, 00.00m,0000596636Hz,0000000000c,0000000.000s, 006.4C,00002191
2014-12-31 11:11:17 r, 00.00m,0000596585Hz,0000000000c,0000000.000s, 007.7C,00002191
2014-12-31 11:21:15 r, 00.00m,0000596544Hz,0000000000c,0000000.000s, 008.7C,00002191
2014-12-31 11:31:15 r, 00.00m,0000596407Hz,0000000000c,0000000.000s, 009.3C,00002191
2014-12-31 11:41:17 r, 00.00m,0000596395Hz,0000000000c,0000000.000s, 009.6C,00002191
2014-12-31 11:51:15 r, 00.00m,0000596396Hz,0000000000c,0000000.000s, 009.9C,00002191
2014-12-31 12:01:16 r, 00.00m,0000596357Hz,0000000000c,0000000.000s, 009.6C,00002191
2014-12-31 12:11:15 r, 00.00m,0000596487Hz,0000000000c,0000000.000s, 009.3C,00002191
2014-12-31 12:21:18 r, 00.00m,0000596547Hz,0000000000c,0000000.000s, 007.4C,00002191
2014-12-31 12:31:17 r, 00.00m,0000596686Hz,0000000000c,0000000.000s, 006.1C,00002191
2014-12-31 12:41:16 r, 00.00m,0000596733Hz,0000000000c,0000000.000s, 005.4C,00002191
2014-12-31 12:51:15 r, 00.00m,0000596658Hz,0000000000c,0000000.000s, 005.8C,00002191
2014-12-31 13:01:17 r, 00.00m,0000596717Hz,0000000000c,0000000.000s, 005.8C,00002191
2014-12-31 13:11:15 r, 00.00m,0000596776Hz,0000000000c,0000000.000s, 006.1C,00002191
2014-12-31 13:21:18 r, 00.00m,0000596756Hz,0000000000c,0000000.000s, 006.4C,00002191
2014-12-31 13:31:19 r, 00.00m,0000596614Hz,0000000000c,0000000.000s, 007.4C,00002191
2014-12-31 13:41:16 r, 00.00m,0000596509Hz,0000000000c,0000000.000s, 008.7C,00002191
2014-12-31 13:51:15 r, 00.00m,0000596431Hz,0000000000c,0000000.000s, 009.3C,00002191
2014-12-31 14:01:15 r, 00.00m,0000596393Hz,0000000000c,0000000.000s, 009.3C,00002191
2014-12-31 14:11:17 r, 00.00m,0000596490Hz,0000000000c,0000000.000s, 008.7C,00002191
2014-12-31 14:21:15 r, 00.00m,0000596620Hz,0000000000c,0000000.000s, 007.7C,00002191
2014-12-31 14:31:17 r, 00.00m,0000596588Hz,0000000000c,0000000.000s, 007.4C,00002191
2014-12-31 14:41:14 r, 00.00m,0000596698Hz,0000000000c,0000000.000s, 006.7C,00002191
2014-12-31 14:51:15 r, 00.00m,0000596695Hz,0000000000c,0000000.000s, 006.4C,00002191
2014-12-31 15:01:17 r, 00.00m,0000596716Hz,0000000000c,0000000.000s, 006.1C,00002191
2014-12-31 15:11:15 r, 00.00m,0000596748Hz,0000000000c,0000000.000s, 006.1C,00002191
2014-12-31 15:21:17 r, 00.00m,0000596684Hz,0000000000c,0000000.000s, 006.1C,00002191
2014-12-31 15:31:15 r, 00.00m,0000520520Hz,0000000000c,0000000.000s, 005.8C,00002191
2014-12-31 15:41:16 r, 00.00m,0000522566Hz,0000000000c,0000000.000s, 005.8C,00002191
2014-12-31 15:51:15 r, 00.00m,0000451136Hz,0000000000c,0000000.000s, 005.4C,00002191
2014-12-31 16:01:16 r, 05.96m,0000349058Hz,0000000000c,0000000.000s, 005.4C,00002191
2014-12-31 16:11:17 r, 05.99m,0000340410Hz,0000000000c,0000000.000s, 005.4C,00002191
2014-12-31 16:21:16 r, 06.37m,0000238868Hz,0000000000c,0000000.000s, 004.8C,00002191
2014-12-31 16:31:15 r, 07.11m,0000121581Hz,0000000000c,0000000.000s, 004.1C,00002191
2014-12-31 16:41:17 r, 07.73m,0000068625Hz,0000000000c,0000000.000s, 003.8C,00002191
2014-12-31 16:51:15 r, 08.88m,0000023801Hz,0000000000c,0000000.000s, 003.5C,00002191
2014-12-31 17:01:17 r, 10.48m,0000005425Hz,0000000000c,0000000.000s, 003.5C,00002191
2014-12-31 17:11:15 r, 12.36m,0000000967Hz,0000000000c,0000000.000s, 003.2C,00002191
2014-12-31 17:21:16 r, 14.00m,0000000213Hz,0000000000c,0000000.000s, 003.2C,00002191
2014-12-31 17:31:15 r, 15.87m,0000000038Hz,0000012199c,0000000.026s, 002.9C,00002191
2014-12-31 17:41:16 r, 16.87m,0000000015Hz,0000030626c,0000000.066s, 002.9C,00002191
2014-12-31 17:51:15 r, 17.51m,0000000008Hz,0000055080c,0000000.120s, 003.2C,00002191
2014-12-31 18:01:16 r, 18.12m,0000000005Hz,0000096942c,0000000.210s, 002.9C,00002191
2014-12-31 18:11:14 r, 18.24m,0000000004Hz,0000108491c,0000000.235s, 002.9C,00002191
2014-12-31 18:21:18 r, 17.96m,0000000005Hz,0000084357c,0000000.183s, 002.9C,00002191
2014-12-31 18:31:15 r, 17.67m,0000000007Hz,0000064278c,0000000.139s, 002.9C,00002191
2014-12-31 18:41:15 r, 17.33m,0000000010Hz,0000047053c,0000000.102s, 002.5C,00002191
2014-12-31 18:51:15 r, 17.30m,0000000010Hz,0000045347c,0000000.098s, 002.5C,00002191
2014-12-31 19:01:15 r, 16.99m,0000000013Hz,0000034508c,0000000.075s, 002.5C,00002191
2014-12-31 19:11:14 r, 16.99m,0000000014Hz,0000034324c,0000000.074s, 002.5C,00002191
2014-12-31 19:21:16 r, 16.90m,0000000014Hz,0000031715c,0000000.069s, 002.9C,00002191
2014-12-31 19:31:14 r, 16.93m,0000000014Hz,0000032359c,0000000.070s, 003.2C,00002191
2014-12-31 19:41:16 r, 17.12m,0000000012Hz,0000038669c,0000000.084s, 003.2C,00002191
2014-12-31 19:51:14 r, 16.90m,0000000015Hz,0000031589c,0000000.069s, 003.2C,00002191
2014-12-31 20:01:17 r, 16.81m,0000000016Hz,0000029121c,0000000.063s, 003.5C,00002191
2014-12-31 20:11:14 r, 16.76m,0000000017Hz,0000027764c,0000000.060s, 003.8C,00002191
2014-12-31 20:21:17 r, 16.77m,0000000016Hz,0000028010c,0000000.061s, 004.1C,00002191
2014-12-31 20:31:16 r, 16.73m,0000000017Hz,0000027134c,0000000.059s, 004.5C,00002191
2014-12-31 20:41:17 r, 16.79m,0000000016Hz,0000028644c,0000000.062s, 004.8C,00002191
2014-12-31 20:51:14 r, 16.76m,0000000017Hz,0000027678c,0000000.060s, 004.8C,00002191
2014-12-31 21:01:16 r, 16.72m,0000000018Hz,0000026785c,0000000.058s, 005.1C,00002191
2014-12-31 21:11:14 r, 16.71m,0000000018Hz,0000026416c,0000000.057s, 005.1C,00002191
2014-12-31 21:21:14 r, 16.72m,0000000017Hz,0000026775c,0000000.058s, 005.1C,00002191
2014-12-31 21:31:17 r, 16.79m,0000000016Hz,0000028505c,0000000.062s, 005.1C,00002191
2014-12-31 21:41:14 r, 16.77m,0000000017Hz,0000028009c,0000000.061s, 005.4C,00002191
2014-12-31 21:51:16 r, 16.75m,0000000017Hz,0000027475c,0000000.060s, 005.4C,00002191
2014-12-31 22:01:15 r, 16.81m,0000000016Hz,0000029021c,0000000.063s, 005.8C,00002191
2014-12-31 22:11:16 r, 16.81m,0000000016Hz,0000028982c,0000000.063s, 005.8C,00002191
2014-12-31 22:21:14 r, 16.85m,0000000015Hz,0000030032c,0000000.065s, 006.1C,00002191
2014-12-31 22:31:16 r, 16.98m,0000000014Hz,0000034061c,0000000.074s, 006.1C,00002191
2014-12-31 22:41:15 r, 16.94m,0000000014Hz,0000032916c,0000000.071s, 006.1C,00002191
2014-12-31 22:51:17 r, 16.98m,0000000013Hz,0000033977c,0000000.074s, 006.4C,00002191
2014-12-31 23:01:15 r, 17.05m,0000000013Hz,0000036523c,0000000.079s, 006.7C,00002191
2014-12-31 23:11:18 r, 17.04m,0000000012Hz,0000035863c,0000000.078s, 007.0C,00002191
2014-12-31 23:21:15 r, 17.00m,0000000013Hz,0000034706c,0000000.075s, 007.4C,00002191
2014-12-31 23:31:16 r, 16.98m,0000000014Hz,0000034199c,0000000.074s, 007.7C,00002191
2014-12-31 23:41:14 r, 17.12m,0000000012Hz,0000038776c,0000000.084s, 008.0C,00002191
2014-12-31 23:51:14 r, 17.26m,0000000011Hz,0000044152c,0000000.096s, 008.3C,00002191
